Regional Weather Roundup
Issued by NWS Wakefield, VA

Home | Current Version | Previous Version | Graphics & Text | Print | Product List | Glossary On
Versions: 1 2 3 4 5 6 7 8 9 10 11 12 13 14 15 16 17 18 19 20 21 22 23 24 25 26 27 28 29 30 31 32 33 34 35 36 37 38 39 40 41 42 43 44
000
ASUS41 KAKQ 261510
RWRAKQ

REGIONAL WEATHER ROUNDUP
NATIONAL WEATHER SERVICE WAKEFIELD VA
1000 AM EST FRI DEC 26 2014

Note: "fair" indicates few or no clouds below 12,000 feet with no
significant weather and/or obstructions to visibility. * = Denotes
station may not report precipitation (e.g., rain,snow,etc.),
thunder or fog.

VAZ042-051-052>054-056-261600-
NORTHERN VIRGINIA

CITY           SKY/WX    TMP DP  RH WIND       PRES   REMARKS
WASH NATIONAL  MOSUNNY   43  33  68 SE3       30.36R
DULLES         MOSUNNY   39  31  72 CALM      30.35R
FORT BELVOIR   SUNNY     42  32  66 W2        30.37R
QUANTICO       SUNNY     38  33  82 E3        30.38R
FREDERICKSBRG* SUNNY     39  34  82 CALM      30.35R
STAFFORD*      SUNNY     40  38  91 CALM      30.40R
WARRENTON      SUNNY     40  37  89 CALM      30.36R
CULPEPER*      SUNNY     37  34  87 CALM      30.36R
MANASSAS*      SUNNY     37  34  87 CALM      30.37R
LEESBURG*      SUNNY     43  34  70 CALM      30.36R
WINCHESTER     SUNNY     37  28  70 S5        30.33R
FRONT ROYAL*   SUNNY     36  32  87 CALM      30.33R
LURAY*         SUNNY     36  32  87 CALM      30.32S
$$

VAZ048-049-060>072-079>083-261600-
CENTRAL AND SOUTH CENTRAL VIRGINIA

CITY           SKY/WX    TMP DP  RH WIND       PRES   REMARKS
RICHMOND       MOSUNNY   46  34  62 SE3       30.34S
CHESTERFIELD*  SUNNY     45  28  53 S3        30.35S
PETERSBURG*    SUNNY     44  37  76 CALM      30.35F
HANOVER        SUNNY     44  34  67 VRB3      30.35S
TAPPAHANNOCK*  SUNNY     44  32  63 CALM      30.36R
QUINTON*       SUNNY     43  35  73 CALM      30.35S
CHARLOTTSVILLE SUNNY     38  30  73 CALM      30.32R
GORDONSVILLE*  SUNNY     40  32  74 SW3       30.34R
ORANGE*        SUNNY     41  32  70 CALM      30.35R
LOUISA*        MOSUNNY   43  34  70 S3        30.32R
BUMPASS*       SUNNY     42  33  69 S5        30.33S
FARMVILLE*     SUNNY     40  40 100 CALM      30.32R
CREWE*         SUNNY     39  33  77 CALM      30.33S
FORT PICKETT*  SUNNY     42  33  70 SE3       30.33S
CHASE CITY*    SUNNY     41  36  83 CALM      30.34S
CLARKSVILLE*   SUNNY     41  34  75 CALM      30.34S
SOUTH HILL*    SUNNY     40  35  83 S3        30.40R
LAWRENCEVILLE* SUNNY     40  35  83 CALM      30.34S
EMPORIA*       SUNNY     43  36  75 CALM      30.36F
$$

VAZ088>098-261600-
SOUTHEAST VIRGINIA

CITY           SKY/WX    TMP DP  RH WIND       PRES   REMARKS
NORFOLK        SUNNY     50  39  66 N3        30.35R
VIRGINIA BEACH MOSUNNY   51  40  65 NE6       30.35R
NORFOLK NAVAL  MOSUNNY   52  39  61 CALM      30.37R
WEST POINT*    SUNNY     44  37  78 CALM      30.38R
SALUDA*        FAIR      43  37  78 CALM      30.35S
NEWPORT NEWS   SUNNY     50  38  63 CALM      30.36R
LANGLEY AFB    SUNNY     47  37  67 E2        30.36R
FORT EUSTIS    SUNNY     46  46 100 NE2       30.34R
WILLIAMSBURG*  SUNNY     46  43  87 CALM      30.36S
HR EXEC AP*    SUNNY     45  39  81 CALM      30.38R
FRANKLIN*      SUNNY     45  39  81 CALM      30.36S
WAKEFIELD      SUNNY     46  37  71 CALM      30.35S
$$

VAZ020-022-025-037-045-261600-
WEST CENTRAL AND SOUTHWEST VIRGINIA

CITY           SKY/WX    TMP DP  RH WIND       PRES   REMARKS
STAUNTON*      SUNNY     36  31  82 CALM      30.33R
WAYNESBORO*    SUNNY     36  30  77 CALM      30.30R
HOT SPRINGS VA SUNNY     40  13  32 W10       30.25R
LYNCHBURG      SUNNY     42  32  67 CALM      30.33R
DANVILLE       SUNNY     37  32  82 CALM      30.35R
SOUTH BOSTON*  SUNNY     38  33  83 CALM      30.35S
MARTINSVILLE   SUNNY     36  34  93 CALM      30.37R
ROANOKE        MOSUNNY   41  31  67 N5        30.35R
BLACKSBURG     MOSUNNY   33  29  85 CALM      30.35R
DUBLIN*        MOSUNNY   36  34  91 CALM      30.34R
MARION*        SUNNY     40  30  68 CALM      30.33S
HILLSVILLE*    SUNNY     33  28  81 SW3       30.31R
RICHLANDS*     SUNNY     35  27  71 CALM      30.31R
WISE*          SUNNY     43  27  52 SW3       30.32R
ABINGDON*      SUNNY     40  34  77 E3        30.33R
$$

MDZ021>025-VAZ099-100-261600-
SOUTHERN MARYLAND AND THE DELMARVA PENINSULA

CITY           SKY/WX    TMP DP  RH WIND       PRES   REMARKS
PATUXENT RIVER PTSUNNY   44  33  65 SW5       30.35R
BAY BRIDGE APT   N/A     41  32  70 W3        30.36R
LEONARDTOWN    SUNNY     43  32  65 MISG        N/A
DOVER          SUNNY     44  33  63 NW6       30.31S
GEORGETOWN     SUNNY     43  33  68 W3        30.35R
EASTON         NOT AVBL
CAMBRIDGE      SUNNY     43  37  81 CALM      30.34R
SALISBURY      SUNNY     47  35  63 CALM      30.35R
OCEAN CITY     SUNNY     44  34  67 NW5       30.35R
WALLOPS ISLAND SUNNY     46  35  65 NW3       30.36R
ACCOMACK*      SUNNY     46  32  57 NE5       30.35S
$$

NCZ012>017-030>032-261600-
NORTH CENTRAL AND EASTERN NORTH CAROLINA

CITY           SKY/WX    TMP DP  RH WIND       PRES   REMARKS
ROANOKE RAPIDS SUNNY     43  36  75 CALM      30.37R
RALEIGH        MOSUNNY   42  35  76 CALM      30.36S
ELIZABETH CITY SUNNY     50  38  63 W3        30.36R
AHOSKIE*       SUNNY     43  36  77 CALM      30.37R
EDENTON*       SUNNY     45  39  79 N3        30.37R
CURRITUCK*     SUNNY     46  39  77 CALM      30.36R
KILL DEVIL HLS SUNNY     50  45  81 W3        30.34R
MANTEO         SUNNY     50  45  81 CALM      30.36R
CAPE HATTERAS  MOSUNNY   54  45  71 CALM      30.34R
TARBORO*       SUNNY     44  38  79 CALM      30.38S
GOLDSBORO      SUNNY     47  45  93 VRB1      30.36R
WASHINGTON     MOSUNNY   46  38  73 CALM      30.37R
GREENVILLE     SUNNY     45  43  93 CALM      30.37S
NEW BERN       SUNNY     51  42  71 CALM      30.38R
WILMINGTON     SUNNY     52  40  63 NE7       30.36S
$$

VAZ048-261600-
ELSEWHERE

CITY           SKY/WX    TMP DP  RH WIND       PRES   REMARKS
HARRISBURG PA  SUNNY     39  30  70 NW9       30.31R
BALTIMORE      MOSUNNY   44  31  60 W6        30.34R
ANNAPOLIS      SUNNY     42  32  67 N3        30.35R
ANDREWS AFB    SUNNY     44  31  61 W6        30.35R
PHILADELPHIA   MOSUNNY   43  29  57 W8        30.34R
HENDERSON NC   SUNNY     44  36  73 CALM      30.35S
GREENSBORO     MOSUNNY   44  34  67 SW3       30.35R
ROCKY MOUNT    SUNNY     46  37  71 CALM      30.37R
$$

VAZ100-261600-
MARINE

STATION/POSITION TIME  TEMP    WIND        PRES    WAVE   SWELL
                       AIR SEA DIR/SP/G            HT/PER HT/PER
                 (UTC) (F)     (DEG/KT/KT) (MB)    (FT/S) (FT/S)
CAPE MAY NJ      1500   43 46  290/  7/  8 1026.8F
LEWES DE         1500   42 45  310/  6/  7 1027.2F
15NM E FENWICK I 1500   43 45              1027.1R   2/ 7
OCEAN-CITY-INLET 1500   44 45  350/  5/  6 1027.2R
WACHAPREAGUE VA  1500   47 47   30/  4/  5 1027.7S
THOMAS POINT MD  1500   40 43  270/  3/  3 1029.0R
GOOSES REEF MD   1500   42     VRB  4/  4  1027.0R   0
COVE POINT MD    1500   46     270/  3/  4 1027.6R
SOLOMONS ISLAND  1500      43                N/A
BISHOPS HEAD MD  1500   43 44  270/  4/  5 1027.4R
PINEY POINT MD   1500          230/  1/  2   N/A
POTOMAC MD       1500   42 44  310/  4/  4 1027.2R   0
CAMBRIDGE MD     1500   43 42  220/  2/  3 1027.5R
LEWISETTA VA     1500   43 44     CALM     1027.6S
RAPPAHANNOCK LGT 1500          320/  2/  2 1028.3R
STINGRAY PT      1500   44 44  290/  4/  4 1028.3R   0
YORK RVR RNG VA  1500   43     330/  4/  4 1027.3R
YORKTOWN VA      1500   42 45  320/  4/  4 1027.7S
JAMESTOWN VA     1500   40 46  340/  2/  2   N/A     0
DOMINION TERM VA 1500   43     310/  7/  8 1028.1R
KIPTOPEKE VA     1500      50  120/  2/  3   N/A
CHES BAY BRIDGE  1500   45 45  340/  3/  4 1027.4R
CAPE HENRY VA    1500   51      CALM  /  3 1026.6R
CHESAPEAKE LGHT  1400   48      60/  7/  7 1027.9R
WILLOUBY STN VA  1500   45     290/  2/  2 1028.4R
S CRANEY ISL VA  1500          330/  3/  4 1027.9R
CAPE HENRY BUOY  1400      48                N/A     2/ 8
1ST LANDING BUOY 1500   47 45  330/  2/  4 1027.4R   1/ 3
CAPE CHARLES BUO 1500      48                N/A     2/ 7   2/ 7
64NM E OF VA BCH 1500   51 52   30/  6/  6 1026.8R   3/ 8   2/ 8
DUCK PIER NC     1500   48 50  290/  4/  6 1026.8R
44100 DUCK FRF   1500      50                N/A     2/ 9
44056 DUCK FRF   1500      50                N/A     2/ 8
OREGON INLET NC  1500   51 54  230/  3/  4 1027.5R
HATTERAS NC      1500   51 55   10/  3/  4 1027.6R
DIAMOND SHLS NC  1500   57                 1027.2R   3/ 7
CAPE LOOKOUT NC  1400   51      10/  5/  7 1027.1R
$$



USA.gov is the U.S. government's official web portal to all federal, state and local government web resources and services.